TimePDT,TemperatureF,Dew PointF,Humidity,Sea Level PressureIn,VisibilityMPH,Wind Direction,Wind SpeedMPH,Gust SpeedMPH,PrecipitationIn,Events,Conditions,WindDirDegrees,DateUTC
12:53 AM,46.9,37.9,71,30.17,10.0,West,5.8,-,N/A,,Clear,260,2013-04-10 07:53:00
1:53 AM,44.1,37.9,79,30.15,10.0,West,5.8,-,N/A,,Clear,280,2013-04-10 08:53:00
2:53 AM,46.0,39.0,76,30.12,10.0,West,5.8,-,N/A,,Partly Cloudy,280,2013-04-10 09:53:00
3:53 AM,46.0,37.9,73,30.12,10.0,West,5.8,-,N/A,,Clear,260,2013-04-10 10:53:00
4:53 AM,46.0,37.9,73,30.10,10.0,WNW,4.6,-,N/A,,Clear,300,2013-04-10 11:53:00
5:53 AM,46.0,37.9,73,30.08,10.0,Calm,Calm,-,N/A,,Clear,0,2013-04-10 12:53:00
6:53 AM,46.0,39.0,76,30.05,10.0,NE,5.8,-,N/A,,Clear,40,2013-04-10 13:53:00
7:53 AM,46.9,39.0,74,30.03,10.0,North,3.5,-,N/A,,Clear,10,2013-04-10 14:53:00
8:53 AM,55.9,42.1,60,29.97,10.0,SSW,3.5,-,N/A,,Mostly Cloudy,210,2013-04-10 15:53:00
9:53 AM,60.8,42.8,52,29.91,10.0,SSW,20.7,27.6,N/A,,Mostly Cloudy,200,2013-04-10 16:53:00
10:53 AM,62.6,42.8,48,29.89,10.0,SSW,26.5,33.4,N/A,,Mostly Cloudy,200,2013-04-10 17:53:00
11:53 AM,63.0,41.0,45,29.90,10.0,Variable,5.8,23.0,N/A,,Mostly Cloudy,0,2013-04-10 18:53:00
12:44 PM,64.4,39.2,40,29.89,10.0,West,23.0,29.9,N/A,,Overcast,280,2013-04-10 19:44:00
12:53 PM,64.9,37.9,37,29.90,10.0,West,21.9,29.9,N/A,,Mostly Cloudy,280,2013-04-10 19:53:00
1:53 PM,66.9,37.0,33,29.90,10.0,West,26.5,51.8,N/A,,Clear,280,2013-04-10 20:53:00
2:53 PM,66.9,34.0,30,29.91,10.0,West,31.1,41.4,N/A,,Clear,270,2013-04-10 21:53:00
3:53 PM,64.9,32.0,29,29.93,10.0,West,34.5,44.9,N/A,,Scattered Clouds,280,2013-04-10 22:53:00
4:53 PM,63.0,30.9,30,29.96,10.0,West,26.5,36.8,N/A,,Scattered Clouds,270,2013-04-10 23:53:00
5:53 PM,60.1,30.9,33,30.00,10.0,West,23.0,32.2,N/A,,Scattered Clouds,280,2013-04-11 00:53:00
6:53 PM,57.9,30.0,35,30.05,10.0,West,10.4,19.6,N/A,,Clear,280,2013-04-11 01:53:00
7:53 PM,53.1,30.0,41,30.08,10.0,WNW,12.7,-,N/A,,Scattered Clouds,290,2013-04-11 02:53:00
8:53 PM,50.0,28.9,44,30.11,10.0,WSW,4.6,-,N/A,,Clear,250,2013-04-11 03:53:00
9:53 PM,50.0,30.0,46,30.12,10.0,WNW,16.1,-,N/A,,Clear,300,2013-04-11 04:53:00
10:53 PM,48.0,30.0,50,30.12,10.0,WNW,17.3,-,N/A,,Clear,290,2013-04-11 05:53:00
11:53 PM,46.9,28.0,48,30.13,10.0,Calm,Calm,-,N/A,,Clear,0,2013-04-11 06:53:00